Temperature
19 20 20 20 24 24 22 22 23 22 22 20 20 19 17 16 17 15 11 12 13 14 14 15 15 15 15 15 15 15 15 16 15 15 15 15 15 15 15 15 16 16 16 16 16 16 16 16 16
20 20 20 23 25 23 21 22 21 20 20 20 19 17 15 12 9 9 10 12 13 14 14 14 15 15 15 15 15 15 15 15 15 15 15 15 15 15 15 15 15 15 15 16 16 16 16 16 16
20 20 21 24 23 22 21 20 21 19 17 19 17 13 11 9 7 7 8 10 12 14 14 14 14 14 15 15 15 14 14 14 14 14 14 15 15 15 15 15 15 15 15 15 15 16 16 16 16
20 21 23 23 20 20 19 19 19 20 17 16 16 13 8 6 6 6 7 9 12 13 13 14 14 14 14 14 14 14 14 14 14 14 14 14 14 14 15 14 15 15 15 15 15 15 15 15 15
21 23 23 21 20 18 15 14 14 16 15 14 15 12 9 7 6 7 8 10 12 12 13 13 13 14 14 14 14 14 14 14 14 14 14 14 14 14 14 14 14 15 15 15 15 15 15 15 15
21 24 22 21 20 19 16 12 14 13 12 11 13 12 9 7 7 7 8 9 11 12 12 12 12 13 13 13 13 13 13 13 14 14 14 14 14 14 14 14 14 14 14 14 14 15 15 15 15
22 22 21 20 19 17 15 12 11 12 11 10 11 12 9 7 7 7 8 9 11 12 12 12 12 12 12 12 12 12 12 13 13 13 13 13 13 13 14 14 14 14 14 14 14 14 14 15 15
20 23 21 20 18 15 13 11 9 10 9 8 9 10 8 6 7 7 9 10 11 11 11 11 12 12 12 12 12 12 12 12 12 12 13 13 13 13 13 13 13 13 14 14 14 14 14 14 14
21 22 20 19 18 14 13 12 9 8 8 7 6 6 6 6 7 9 10 11 11 11 10 11 11 11 11 11 12 12 12 12 12 12 12 12 12 12 12 13 13 13 13 13 13 13 13 14 14
21 20 17 17 16 13 11 11 10 9 8 8 7 6 6 6 8 9 8 8 8 8 9 9 10 10 10 11 11 11 11 11 12 12 12 12 12 12 12 12 12 13 13 13 13 13 13 13 13
17 17 14 12 12 10 9 9 9 9 8 7 6 6 5 6 7 6 6 6 6 7 8 8 9 9 9 10 10 10 10 11 11 11 11 11 11 12 12 12 12 12 12 12 13 13 13 13 13
14 13 14 12 11 10 10 8 7 7 6 5 5 5 5 5 5 5 5 5 6 7 8 8 8 8 9 9 9 8 8 9 9 10 10 11 11 11 11 11 11 11 12 12 12 12 12 12 12
13 10 9 8 8 8 7 7 6 6 5 5 5 5 4 4 4 4 4 5 5 6 7 7 7 7 7 7 7 7 6 6 6 6 7 8 8 9 10 10 10 11 11 11 11 12 12 12 12
12 11 10 9 9 8 8 7 7 5 5 5 5 4 4 4 3 4 4 4 4 4 5 5 5 5 5 5 5 5 5 4 4 4 4 5 5 6 7 8 9 9 10 10 11 11 11 11 12
13 13 12 11 10 9 9 8 6 5 6 5 5 4 4 3 3 3 3 3 2 2 2 3 3 4 4 4 4 4 3 3 2 2 2 3 3 4 4 5 6 6 8 8 9 10 10 10 11
17 17 15 12 11 9 11 8 6 5 6 5 5 4 4 3 2 2 2 2 1 1 2 2 2 2 2 2 3 2 2 1 1 1 1 2 2 2 3 3 3 4 5 6 6 7 8 9 10
18 19 16 12 10 10 11 7 5 5 5 5 5 4 4 3 2 2 1 1 1 1 1 1 1 1 1 1 1 1 0 -0 -1 -1 -0 1 1 1 2 2 2 3 3 4 4 5 6 7 8
19 18 16 13 9 9 9 7 5 5 5 5 5 4 4 3 2 1 1 0 0 -0 -0 -0 -0 -0 -0 -0 0 -0 -1 -2 -2 -2 -1 -1 -0 0 0 0 1 2 2 3 3 3 4 5 6
17 17 15 11 8 8 8 6 6 5 5 5 5 4 3 3 2 1 -0 -1 -1 -1 -1 -1 -1 -1 -2 -2 -2 -2 -2 -3 -3 -3 -3 -2 -2 -2 -2 -1 -1 -0 1 1 2 2 3 4 4
17 16 13 9 8 8 7 6 6 5 5 4 4 3 3 2 2 0 -1 -2 -3 -3 -3 -3 -3 -3 -4 -4 -4 -4 -5 -4 -4 -4 -4 -3 -3 -3 -4 -3 -3 -3 -2 -1 0 1 1 2 2
16 16 14 11 7 7 7 7 6 5 5 4 4 3 3 2 1 -0 -1 -2 -3 -4 -4 -4 -4 -4 -5 -6 -6 -6 -5 -5 -5 -5 -5 -5 -4 -4 -5 -5 -5 -5 -4 -4 -3 -2 -2 -1 1
16 13 13 10 10 10 8 12 7 6 6 5 5 4 3 2 1 -1 -2 -3 -4 -5 -5 -5 -5 -5 -6 -6 -7 -7 -8 -7 -7 -7 -7 -6 -6 -5 -6 -6 -6 -6 -5 -5 -5 -4 -4 -3 -2
14 11 11 11 12 11 9 10 10 6 6 6 5 4 3 2 0 -1 -3 -4 -5 -6 -6 -6 -6 -6 -6 -7 -8 -8 -8 -8 -8 -8 -8 -8 -7 -6 -6 -7 -7 -6 -6 -6 -5 -4 -4 -3 -3
11 12 11 11 12 13 12 11 11 7 6 5 5 4 3 1 -0 -2 -3 -5 -6 -6 -7 -7 -7 -7 -7 -8 -8 -9 -9 -9 -9 -9 -9 -9 -8 -8 -7 -7 -7 -7 -6 -6 -5 -4 -4 -3 -3
14 15 16 16 15 15 10 11 10 6 5 4 4 3 2 1 -1 -3 -4 -5 -6 -7 -8 -8 -8 -8 -8 -8 -9 -9 -10 -10 -10 -10 -10 -10 -9 -9 -8 -8 -8 -7 -6 -6 -5 -4 -4 -3 -3
13 14 15 15 16 15 11 11 8 6 4 4 3 3 2 -0 -2 -3 -5 -6 -7 -8 -8 -8 -8 -9 -9 -9 -10 -10 -10 -11 -11 -11 -11 -11 -10 -10 -9 -9 -8 -7 -7 -6 -5 -5 -4 -3 -2
13 13 12 13 13 12 13 9 5 5 5 4 3 2 1 -1 -3 -4 -5 -6 -7 -8 -8 -9 -9 -9 -10 -10 -10 -11 -11 -11 -11 -11 -11 -11 -11 -10 -10 -9 -8 -7 -7 -6 -6 -6 -5 -3 -2
11 11 12 13 13 14 14 12 10 5 4 4 3 2 0 -2 -3 -4 -5 -7 -7 -8 -8 -9 -9 -10 -10 -11 -11 -11 -12 -12 -12 -12 -12 -12 -11 -11 -10 -9 -8 -8 -7 -7 -6 -6 -5 -4 -3
11 11 11 11 11 12 13 12 6 5 4 3 3 1 -1 -2 -4 -5 -6 -7 -8 -8 -9 -9 -9 -10 -10 -11 -11 -12 -12 -12 -13 -13 -13 -13 -12 -12 -11 -10 -9 -8 -8 -7 -7 -7 -6 -5 -3
10 11 11 12 12 10 11 10 5 4 3 3 2 1 -1 -3 -4 -5 -6 -7 -8 -9 -9 -10 -10 -10 -11 -11 -12 -12 -12 -13 -13 -13 -13 -13 -13 -12 -12 -11 -9 -9 -8 -8 -7 -7 -6 -6 -4
Wind_Speed
9 6 3 2 6 12 16 10 11 14 13 17 18 17 18 16 10 7 15 27 27 23 22 23 21 17 14 13 13 13 12 12 12 12 12 12 12 11 10 10 9 9 9 8 9 10 9 8 8
7 4 2 1 12 17 14 11 13 13 9 9 14 17 17 16 11 9 17 25 24 24 26 30 32 28 21 17 15 15 14 13 12 12 12 12 12 12 12 12 11 11 11 10 10 11 10 9 8
3 2 3 7 15 15 10 10 9 13 20 12 10 13 9 10 10 12 18 22 19 23 26 30 34 35 33 30 25 21 19 17 15 13 14 14 13 13 13 13 12 12 12 11 10 10 11 10 9
2 1 6 15 22 15 12 14 9 7 14 17 12 12 9 11 10 13 16 18 20 25 27 32 35 35 35 35 34 32 29 26 22 18 17 17 16 15 15 15 14 12 12 12 10 8 8 9 9
1 6 14 19 17 14 18 19 20 16 9 15 16 12 9 12 13 13 15 20 23 26 29 32 36 35 36 35 34 33 32 32 31 28 24 20 17 16 16 15 14 13 12 12 9 8 6 6 6
3 6 14 17 15 12 14 19 14 22 15 12 11 10 9 13 15 15 18 22 26 27 29 30 33 33 34 36 35 34 33 31 31 31 30 28 23 20 17 15 14 13 12 11 9 8 7 7 6
7 8 13 15 13 9 8 10 20 15 18 14 8 7 6 19 15 15 18 22 26 28 29 29 30 30 29 30 33 32 33 33 31 31 31 28 25 24 21 18 16 15 13 10 10 9 9 8 7
4 7 10 9 9 6 6 8 12 19 16 14 13 9 8 16 14 14 16 21 25 28 28 29 29 29 27 25 28 29 29 31 30 30 31 28 25 24 23 21 21 19 16 13 12 11 11 10 9
3 8 9 6 7 8 7 9 11 15 19 22 20 17 12 12 14 17 21 24 25 25 26 28 29 29 27 24 24 24 24 27 27 27 29 25 22 21 20 22 23 21 19 16 14 13 12 12 11
7 7 8 7 10 14 16 15 10 11 18 18 18 17 15 15 19 23 24 24 25 25 24 26 27 28 27 24 23 21 20 21 21 23 25 23 21 20 21 20 21 22 20 17 14 14 14 14 11
8 9 10 14 18 18 15 16 13 9 14 15 14 15 16 19 22 23 22 22 21 22 23 24 26 27 26 23 21 19 18 18 19 21 23 22 19 20 20 18 18 18 17 15 15 13 12 12 10
11 13 12 11 12 13 13 11 15 18 12 11 13 14 17 21 22 21 21 20 20 21 23 23 26 25 25 23 20 19 18 18 18 19 22 21 17 17 18 16 18 16 14 14 13 11 12 12 13
13 15 22 26 27 25 24 21 18 16 12 11 13 16 19 19 19 18 19 19 21 22 23 22 26 26 25 22 20 19 18 18 19 18 20 21 18 16 17 16 16 17 17 16 13 11 12 12 11
17 22 19 16 17 14 19 15 9 11 10 12 14 16 17 18 19 19 21 21 22 21 22 21 24 25 24 22 21 19 19 19 19 18 20 21 20 18 17 15 15 15 17 18 16 15 13 11 10
24 20 15 9 10 9 10 13 9 7 9 12 14 14 16 17 17 19 19 19 20 20 20 20 22 25 24 22 22 19 19 20 18 18 20 21 21 21 19 15 13 15 18 18 16 16 13 11 11
9 8 7 5 3 2 2 7 7 5 9 13 13 13 14 15 16 16 18 18 19 20 20 20 21 23 24 22 21 20 20 19 18 18 18 21 21 21 19 15 13 17 17 14 12 13 13 13 12
6 4 6 5 4 2 4 8 8 6 9 12 12 13 13 14 16 17 18 20 20 20 21 22 22 23 23 23 21 20 19 19 18 17 17 20 20 21 19 15 15 18 15 12 12 12 13 14 14
4 4 5 4 3 4 8 13 10 7 8 11 11 12 13 15 16 16 18 20 20 20 20 21 21 22 23 20 19 17 17 17 17 18 19 21 20 21 19 15 17 18 13 12 13 15 14 13 14
4 6 6 4 4 5 11 14 9 6 7 9 11 12 14 15 15 15 17 18 19 19 21 22 22 21 19 16 17 17 16 15 15 17 21 22 22 21 19 15 16 16 14 16 16 14 15 13 12
7 6 5 5 5 4 10 9 7 5 6 7 9 11 13 16 16 16 16 17 18 18 19 20 20 20 19 16 16 15 16 14 15 18 20 22 23 23 19 17 14 15 15 17 16 15 12 12 10
3 1 3 6 6 5 8 8 9 6 3 3 6 8 12 14 16 16 15 17 18 18 19 18 20 19 19 20 16 15 14 14 14 16 15 21 24 23 21 20 17 16 14 14 17 16 15 13 13
2 2 3 10 8 4 8 4 11 8 3 2 6 9 12 14 15 15 16 18 18 18 17 18 19 18 19 20 17 19 15 16 18 16 15 21 22 22 22 21 20 17 15 16 16 16 14 14 13
5 3 3 8 5 2 7 6 5 8 5 3 8 11 13 13 15 15 15 16 17 17 16 17 18 18 19 20 19 18 17 16 16 17 19 18 19 20 21 21 20 18 15 17 17 17 16 13 13
3 2 4 5 4 5 4 6 3 6 2 4 9 12 14 14 15 14 14 14 15 16 16 17 18 18 19 19 19 19 20 20 20 20 19 17 16 16 20 22 20 19 16 17 18 17 18 15 15
5 4 3 3 4 2 3 6 1 8 3 5 10 13 14 14 14 13 15 15 16 17 17 17 19 19 20 20 20 19 20 20 20 19 19 19 16 16 19 20 19 18 18 18 17 17 17 16 16
5 6 5 6 7 5 3 4 5 6 2 5 9 12 13 14 13 13 14 14 16 17 17 18 19 19 19 19 20 18 19 16 15 19 18 18 16 17 21 21 20 21 20 18 16 16 17 15 15
2 2 3 4 5 7 5 3 5 4 1 7 11 14 14 13 12 13 13 14 15 17 17 18 19 19 19 19 19 18 18 18 18 19 18 16 17 18 22 21 19 19 19 18 17 14 16 16 16
4 1 2 4 7 8 8 5 3 5 4 9 13 15 15 12 11 13 13 13 15 15 16 17 17 18 18 18 17 16 18 18 18 17 19 20 20 21 21 20 20 19 18 18 16 16 16 16 16
1 1 1 2 4 6 9 5 6 4 4 10 13 14 14 12 12 14 13 13 14 15 16 16 17 18 17 18 18 18 17 18 18 17 19 19 20 21 21 21 20 20 19 18 16 16 17 17 16
1 1 2 5 5 5 7 3 10 4 5 9 13 15 13 11 13 14 13 14 14 15 16 16 17 17 17 17 17 17 17 18 18 19 19 20 20 20 20 20 20 20 20 19 17 17 17 16 16
Wind_Direction
323 321 285 241 122 93 84 69 79 74 69 62 66 72 70 53 38 54 351 349 351 3 9 10 5 354 348 346 344 342 339 334 333 335 335 331 328 326 326 327 326 318 311 300 289 283 278 268 262
325 311 268 50 107 99 83 68 64 51 39 91 66 63 61 48 26 10 348 340 352 12 18 19 20 17 7 354 344 338 333 326 321 320 320 317 315 314 314 314 315 315 315 306 290 281 275 266 258
305 311 61 77 83 83 78 44 54 72 50 56 70 53 49 22 7 353 342 341 2 22 23 23 25 27 26 21 13 0 347 336 325 317 312 310 306 303 305 304 303 306 305 304 295 282 273 266 256
271 89 80 89 81 58 43 24 24 88 51 31 79 68 71 26 2 346 343 358 20 28 28 28 28 29 28 26 25 22 17 7 353 336 322 315 310 306 304 305 298 299 298 294 292 286 278 267 254
16 86 93 90 84 69 48 34 45 53 59 35 70 83 67 21 8 1 8 19 27 29 28 29 29 29 29 27 25 24 22 20 16 9 357 341 325 317 313 312 305 297 296 287 280 282 283 277 260
78 93 99 92 92 77 53 30 41 49 54 38 63 84 61 16 9 13 20 26 30 29 27 26 25 25 26 26 25 24 23 21 19 16 10 3 353 340 328 318 317 304 295 287 274 272 277 277 269
86 80 94 101 92 65 36 42 37 45 46 34 24 81 62 18 11 18 26 30 32 29 27 24 21 20 20 22 20 20 20 19 18 16 12 6 3 357 348 336 327 320 304 290 281 274 270 270 266
57 97 98 88 85 72 57 66 51 44 49 41 39 63 34 12 18 28 34 34 31 28 24 20 18 16 14 14 16 15 16 15 13 13 10 6 3 360 355 352 346 334 321 305 292 281 277 274 268
54 92 86 80 107 106 92 88 71 66 70 65 61 61 48 30 31 33 33 30 26 24 20 16 14 11 8 7 9 10 12 12 10 8 5 3 1 359 353 352 350 346 337 320 300 285 281 280 261
58 87 65 51 106 108 84 81 98 75 61 60 58 56 47 40 36 36 32 26 21 18 15 13 12 8 5 2 1 2 5 6 8 7 4 359 355 352 350 345 349 348 343 329 311 294 275 264 256
63 77 90 79 96 106 95 74 66 96 59 52 52 47 41 39 37 34 30 25 20 15 14 11 10 7 5 360 358 356 355 357 359 2 2 358 356 352 350 346 345 344 343 340 329 310 284 270 265
83 60 96 96 92 95 95 92 72 68 79 71 62 53 46 41 37 31 25 20 15 14 12 8 7 6 3 359 356 353 352 351 351 354 357 356 352 350 347 342 340 339 339 335 330 317 300 285 271
89 86 84 91 90 89 91 89 88 78 81 77 68 57 49 43 36 32 24 19 14 11 7 5 3 3 359 357 354 352 350 348 345 347 351 353 348 345 342 337 337 335 336 332 326 316 308 296 282
113 113 109 101 96 88 88 85 79 76 83 77 65 55 48 41 33 27 20 15 11 6 3 1 0 359 356 355 352 348 347 345 343 344 345 348 346 341 337 332 332 332 333 329 321 314 306 295 285
120 113 111 112 109 125 94 71 74 80 86 73 62 54 47 39 32 26 19 12 7 2 359 359 356 356 355 353 351 346 344 342 340 341 342 347 345 342 336 330 329 332 329 325 322 317 310 299 289
141 139 117 84 91 122 160 105 92 80 83 70 59 50 43 37 30 24 18 12 6 2 0 358 357 354 353 352 349 346 343 341 339 340 341 345 344 344 337 331 330 333 328 324 322 319 316 306 293
193 169 129 113 48 123 136 134 120 93 84 71 57 46 37 30 25 20 16 10 5 3 359 357 356 354 352 350 347 345 343 342 340 340 342 341 341 342 337 331 332 332 329 327 324 322 318 309 300
164 153 138 144 78 113 129 132 125 101 79 69 55 41 31 25 19 13 10 7 2 0 358 355 353 353 351 350 347 344 343 342 339 339 339 338 337 338 336 332 333 333 329 329 327 322 318 310 300
104 133 137 125 116 110 132 136 131 117 84 61 45 32 23 17 11 9 5 3 358 358 358 355 352 351 351 352 348 344 341 338 337 338 336 335 334 334 333 332 331 331 328 325 323 324 319 316 313
123 133 136 120 121 126 145 147 144 127 81 52 33 22 13 5 1 1 358 359 357 356 356 354 352 349 350 350 343 339 333 333 334 335 333 333 332 330 330 330 329 328 325 321 322 322 316 311 313
139 277 227 167 131 141 160 187 189 163 124 57 24 9 6 2 354 352 353 356 356 356 355 352 351 349 348 347 343 340 336 335 338 337 334 333 330 327 325 325 325 323 322 317 316 314 309 307 304
245 345 245 168 175 184 209 264 182 186 187 21 8 1 357 354 351 350 352 355 355 353 351 350 349 349 349 347 346 343 339 338 335 332 329 329 328 325 323 324 324 322 319 314 311 308 301 297 293
344 357 185 188 212 208 208 261 156 181 226 334 359 355 350 347 349 349 352 351 351 350 350 349 348 349 349 348 347 343 339 336 332 331 329 330 328 327 325 325 324 321 317 312 307 302 295 287 282
316 144 121 162 211 255 200 229 192 182 212 344 352 349 348 347 347 346 347 349 350 350 350 350 348 349 349 348 347 344 340 337 334 334 332 331 328 327 327 326 323 319 315 311 307 301 293 285 276
3 313 290 272 248 275 143 232 218 136 101 3 346 344 346 346 345 344 346 349 350 350 350 349 348 348 348 347 346 343 341 337 334 334 331 330 328 327 327 325 321 317 315 312 310 307 299 288 278
10 354 356 317 311 307 210 252 150 151 88 358 347 343 345 345 346 344 346 347 348 348 348 348 347 346 346 345 344 341 341 337 333 331 329 327 325 324 323 322 319 317 316 314 315 314 308 299 289
333 37 354 283 278 275 252 168 164 186 311 347 345 347 350 344 342 343 345 347 348 348 348 347 344 343 343 343 342 340 340 338 334 331 329 328 326 324 325 323 321 319 320 318 318 320 318 312 301
44 102 264 306 319 307 295 262 210 171 337 345 348 350 348 345 343 345 347 348 348 346 345 345 343 341 340 341 341 338 338 337 334 332 332 330 328 328 327 327 325 323 324 323 320 324 326 322 314
130 125 54 299 288 296 309 331 108 111 6 349 350 353 349 347 348 347 347 347 345 344 344 344 343 341 341 341 340 339 339 338 337 335 334 332 330 331 331 330 328 328 330 327 324 330 334 334 331
270 211 245 297 295 258 281 300 124 84 8 353 351 354 353 350 347 345 345 343 343 342 342 342 342 341 340 339 338 339 339 340 340 339 336 335 334 334 333 332 331 333 333 331 325 335 341 341 341
Height
1536 1535 1534 1535 1534 1537 1549 1555 1551 1552 1554 1560 1559 1560 1567 1573 1577 1588 1590 1582 1579 1576 1573 1570 1568 1566 1564 1562 1560 1558 1557 1555 1554 1552 1551 1549 1548 1547 1546 1545 1544 1543 1541 1540 1540 1540 1539 1538 1538
1536 1535 1537 1536 1531 1545 1557 1557 1558 1561 1564 1564 1565 1569 1573 1583 1590 1591 1586 1582 1580 1577 1573 1570 1567 1565 1564 1562 1561 1559 1557 1555 1554 1552 1550 1549 1547 1546 1545 1544 1542 1541 1540 1538 1538 1537 1537 1536 1535
1536 1536 1540 1538 1542 1552 1561 1565 1564 1567 1567 1567 1572 1578 1585 1596 1596 1593 1589 1584 1581 1578 1574 1571 1568 1566 1563 1561 1559 1558 1556 1555 1553 1552 1550 1548 1547 1545 1544 1542 1541 1539 1538 1537 1536 1535 1534 1533 1533
1537 1540 1541 1544 1557 1566 1571 1573 1570 1567 1570 1574 1575 1586 1597 1605 1602 1598 1592 1587 1583 1579 1575 1572 1569 1566 1564 1561 1559 1556 1554 1553 1551 1550 1548 1547 1545 1544 1542 1540 1539 1537 1535 1534 1533 1532 1532 1531 1531
1540 1542 1545 1554 1564 1575 1581 1581 1579 1574 1578 1584 1582 1594 1603 1607 1604 1599 1594 1589 1583 1579 1576 1572 1569 1566 1564 1562 1559 1557 1554 1552 1549 1547 1545 1544 1543 1541 1540 1538 1536 1535 1533 1532 1531 1530 1529 1529 1528
1544 1544 1551 1562 1570 1575 1583 1587 1582 1584 1588 1590 1591 1597 1607 1609 1604 1600 1596 1591 1586 1581 1577 1574 1570 1567 1565 1562 1560 1558 1555 1553 1550 1547 1544 1542 1540 1538 1537 1535 1534 1532 1531 1530 1529 1527 1527 1526 1526
1547 1550 1558 1565 1573 1581 1589 1592 1591 1592 1594 1598 1598 1601 1609 1609 1606 1603 1598 1593 1587 1583 1579 1575 1572 1569 1566 1563 1560 1558 1555 1552 1549 1547 1544 1541 1539 1536 1534 1532 1531 1529 1528 1527 1526 1525 1524 1523 1523
1550 1554 1562 1567 1577 1589 1596 1597 1602 1601 1604 1606 1603 1606 1613 1612 1609 1605 1600 1593 1589 1585 1581 1578 1575 1571 1568 1565 1561 1558 1555 1552 1548 1545 1543 1540 1537 1535 1532 1530 1527 1525 1524 1523 1522 1521 1521 1520 1520
1553 1559 1568 1573 1580 1592 1598 1600 1606 1612 1612 1611 1612 1614 1616 1613 1609 1603 1597 1592 1588 1585 1582 1579 1575 1572 1569 1565 1562 1558 1555 1551 1547 1544 1541 1538 1535 1532 1530 1527 1525 1523 1521 1520 1518 1517 1517 1516 1516
1558 1565 1579 1582 1584 1595 1601 1604 1608 1615 1614 1615 1616 1616 1615 1612 1606 1600 1596 1593 1589 1587 1584 1580 1576 1573 1569 1565 1562 1558 1554 1550 1546 1543 1539 1536 1533 1530 1527 1525 1522 1520 1518 1516 1515 1514 1513 1512 1512
1569 1577 1589 1594 1595 1598 1603 1608 1611 1613 1618 1620 1620 1619 1616 1611 1605 1602 1600 1597 1594 1590 1586 1582 1578 1574 1570 1565 1561 1557 1553 1549 1545 1541 1537 1534 1531 1527 1524 1521 1519 1517 1515 1513 1511 1510 1509 1509 1508
1579 1590 1591 1598 1601 1603 1605 1611 1616 1618 1623 1624 1622 1620 1616 1611 1608 1606 1603 1600 1596 1592 1587 1583 1578 1574 1569 1565 1561 1556 1552 1547 1543 1539 1535 1531 1527 1524 1521 1518 1515 1512 1511 1509 1507 1506 1505 1504 1503
1585 1599 1602 1606 1606 1609 1610 1615 1618 1624 1626 1626 1624 1621 1617 1614 1612 1609 1606 1602 1597 1592 1587 1583 1578 1573 1568 1563 1559 1554 1550 1545 1541 1536 1532 1527 1523 1520 1517 1514 1511 1508 1506 1504 1503 1502 1500 1499 1499
1590 1597 1603 1609 1608 1613 1614 1618 1621 1628 1628 1627 1624 1621 1618 1616 1613 1609 1605 1600 1596 1592 1587 1582 1577 1571 1566 1561 1556 1551 1547 1542 1538 1534 1530 1525 1521 1516 1512 1509 1506 1503 1501 1499 1497 1496 1495 1494 1494
1591 1596 1605 1610 1611 1614 1614 1622 1628 1629 1628 1626 1624 1622 1619 1617 1613 1609 1605 1601 1597 1592 1586 1580 1575 1569 1563 1558 1553 1548 1543 1539 1535 1531 1527 1522 1518 1513 1508 1504 1501 1497 1495 1493 1491 1490 1489 1488 1487
1588 1589 1596 1610 1611 1614 1614 1622 1631 1630 1629 1626 1624 1623 1621 1618 1615 1611 1607 1602 1597 1591 1585 1579 1573 1567 1561 1555 1550 1545 1540 1535 1531 1527 1522 1518 1514 1509 1505 1501 1497 1492 1489 1487 1485 1483 1482 1481 1481
1582 1582 1592 1608 1613 1612 1611 1621 1630 1630 1629 1627 1626 1624 1622 1620 1616 1612 1608 1603 1597 1591 1585 1578 1572 1565 1559 1553 1547 1542 1537 1532 1528 1524 1519 1513 1509 1505 1501 1497 1493 1488 1484 1481 1479 1477 1475 1474 1473
1579 1582 1592 1601 1612 1612 1613 1621 1629 1631 1630 1628 1627 1625 1623 1620 1617 1613 1608 1602 1597 1590 1584 1577 1570 1564 1557 1551 1544 1539 1534 1529 1525 1521 1516 1511 1506 1501 1497 1492 1488 1484 1480 1476 1473 1470 1468 1467 1466
1582 1584 1592 1605 1614 1615 1617 1623 1629 1631 1630 1629 1627 1626 1623 1621 1618 1613 1608 1602 1595 1589 1582 1576 1569 1562 1555 1548 1541 1535 1530 1525 1520 1516 1512 1508 1503 1498 1493 1488 1484 1480 1476 1471 1468 1464 1461 1460 1460
1585 1588 1597 1611 1617 1616 1621 1625 1629 1630 1630 1630 1628 1626 1623 1620 1616 1612 1607 1601 1594 1588 1581 1575 1568 1561 1555 1548 1542 1535 1529 1523 1518 1513 1508 1504 1500 1495 1491 1486 1480 1476 1471 1467 1463 1459 1456 1454 1455
1588 1588 1593 1603 1617 1619 1621 1623 1626 1629 1630 1629 1628 1626 1623 1620 1615 1611 1605 1600 1593 1586 1580 1573 1566 1559 1553 1546 1539 1533 1527 1521 1515 1509 1504 1500 1496 1492 1487 1483 1478 1472 1468 1463 1459 1455 1452 1448 1448
1590 1596 1597 1603 1605 1605 1615 1596 1615 1624 1626 1626 1625 1623 1621 1618 1614 1609 1604 1598 1592 1585 1579 1572 1565 1558 1551 1544 1537 1531 1525 1520 1514 1509 1503 1497 1492 1487 1483 1478 1474 1468 1464 1459 1455 1452 1448 1444 1441
1596 1600 1599 1602 1599 1601 1608 1604 1603 1621 1620 1621 1621 1620 1618 1616 1612 1607 1602 1597 1591 1584 1577 1570 1563 1557 1550 1543 1536 1530 1524 1519 1513 1507 1501 1494 1488 1483 1478 1473 1468 1463 1459 1454 1450 1447 1443 1440 1436
1601 1600 1600 1600 1597 1590 1592 1598 1590 1611 1616 1618 1619 1618 1616 1613 1610 1605 1600 1595 1589 1582 1575 1568 1561 1555 1548 1541 1534 1528 1522 1516 1510 1504 1497 1490 1484 1478 1473 1468 1463 1458 1454 1450 1445 1441 1437 1434 1430
1597 1591 1583 1580 1580 1578 1597 1594 1597 1613 1618 1619 1619 1617 1615 1612 1608 1603 1598 1592 1586 1580 1573 1566 1559 1552 1546 1539 1532 1526 1520 1514 1508 1501 1494 1488 1481 1474 1468 1463 1458 1454 1449 1445 1440 1435 1430 1427 1424
1602 1597 1594 1591 1578 1575 1591 1588 1604 1615 1618 1619 1618 1616 1613 1610 1606 1601 1597 1591 1585 1578 1571 1564 1557 1550 1543 1536 1530 1524 1517 1511 1505 1499 1493 1486 1479 1472 1466 1460 1455 1450 1445 1440 1435 1429 1424 1420 1416
1602 1602 1606 1600 1594 1594 1579 1597 1612 1615 1617 1618 1616 1614 1611 1608 1604 1600 1595 1589 1583 1576 1569 1562 1555 1548 1541 1534 1528 1521 1515 1508 1502 1496 1490 1483 1477 1470 1463 1457 1452 1447 1442 1436 1431 1425 1418 1413 1409
1609 1608 1606 1599 1595 1583 1571 1583 1592 1612 1616 1617 1615 1612 1609 1605 1602 1598 1593 1587 1581 1574 1567 1560 1553 1546 1540 1533 1526 1519 1513 1506 1500 1493 1487 1480 1474 1467 1460 1454 1449 1443 1438 1433 1428 1422 1414 1408 1403
1609 1610 1607 1606 1603 1596 1582 1580 1605 1613 1616 1616 1613 1611 1607 1603 1600 1596 1591 1585 1579 1572 1565 1558 1551 1544 1537 1531 1524 1517 1511 1504 1498 1491 1484 1478 1471 1464 1457 1451 1445 1440 1435 1429 1425 1420 1412 1404 1398
1611 1609 1608 1604 1598 1603 1597 1595 1611 1614 1615 1614 1611 1608 1605 1602 1599 1594 1589 1583 1576 1570 1563 1556 1549 1542 1535 1529 1522 1516 1509 1503 1496 1489 1482 1476 1469 1462 1456 1449 1443 1438 1432 1426 1422 1417 1410 1402 1396